Lyndonville, VT

9:28 AM EST on December 17, 2017 (GMT -0500)
Lyndonville

Weather History for KCDA - December, 2012

Change the Weather History Date:

Sunday, December 30, 2012

  Actual Average (K1V4) Record (K1V4)
Temperature  
Mean Temperature 13 °F -  
Max Temperature 20 °F 26 °F 48 °F (1990)
Min Temperature 6 °F 10 °F -43 °F (1917)
Degree Days  
Heating Degree Days 52    
Moisture  
Dew Point 5 °F    
Average Humidity 72    
Maximum Humidity 86    
Minimum Humidity 63    
Precipitation  
Precipitation 0.00 in - - ()
Sea Level Pressure  
Sea Level Pressure 29.77 in    
Wind  
Wind Speed 8 mph (WSW)    
Max Wind Speed 21 mph    
Max Gust Speed 29 mph    
Visibility 5 miles    
Events Snow    
Averages and records for this station are not official NWS values.
T = Trace of Precipitation, MM = Missing Value Source: NWS Daily Summary

Daily Weather History Graph

Daily Weather History Graph

Search for Another Location

Airport or City:

Trip Planner

Search our weather history database for the weather conditions in past years. The results will help you decide how hot, cold, wet, or windy it might be!

Date:

Astronomy

Dec. 30, 2012 Rise Set
Actual Time 7:24 AM EST 4:17 PM EST
Civil Twilight 6:51 AM EST 4:50 PM EST
Nautical Twilight 6:14 AM EST 5:27 PM EST
Astronomical Twilight 5:39 AM EST 6:02 PM EST
Moon 6:51 PM EST (12/30) 8:26 AM EST (12/30)
Length of Visible Light 9h 59m
Length of Day
8h 52m
Waning Gibbous, 95% of the Moon is Illuminated
Dec 30
Waning Gibbous
Jan 4
Last Quarter
Jan 11
New
Jan 18
First Quarter
Jan 26
Full

Hourly Weather History & Observations

Time (EST) Temp. Windchill Dew Point Humidity Pressure Visibility Wind Dir Wind Speed Gust Speed Precip Events Conditions
12:15 AM 20.1 °F 15.2 °F 16.5 °F 86% 29.51 in 1.8 mi West 3.5 mph - N/A Snow Light Snow
12:35 AM 20.1 °F 13.6 °F 16.5 °F 86% 29.51 in 2.0 mi West 4.6 mph - N/A Snow Light Snow
1:15 AM 19.8 °F 10.8 °F 15.4 °F 83% 29.51 in 4.0 mi WNW 6.9 mph - N/A Snow Light Snow
1:35 AM 19.6 °F 13.0 °F 15.4 °F 84% 29.51 in 4.0 mi WNW 4.6 mph - N/A Snow Light Snow
1:55 AM 20.1 °F 12.3 °F 15.3 °F 81% 29.52 in 4.0 mi NW 5.8 mph - N/A Snow Light Snow
2:15 AM 20.1 °F 12.3 °F 14.9 °F 80% 29.52 in 5.0 mi NW 5.8 mph - N/A Snow Light Snow
2:35 AM 20.1 °F 13.6 °F 14.5 °F 79% 29.52 in 4.0 mi NW 4.6 mph - N/A Snow Light Snow
2:55 AM 20.1 °F 10.3 °F 14.0 °F 77% 29.52 in 4.0 mi NW 8.1 mph - N/A Snow Light Snow
3:15 AM 20.1 °F 10.3 °F 14.4 °F 78% 29.53 in 4.0 mi NNW 8.1 mph - N/A Snow Light Snow
3:35 AM 19.4 °F 10.4 °F 13.6 °F 78% 29.53 in 5.0 mi NW 6.9 mph 17.3 mph N/A Snow Light Snow
8:35 AM 13.6 °F 3.5 °F 7.2 °F 75% 29.66 in 1.8 mi SW 6.9 mph - N/A Snow Light Snow
8:55 AM 13.6 °F 6.0 °F 7.5 °F 77% 29.67 in 1.5 mi SW 4.6 mph - N/A Snow Light Snow
9:15 AM 14.0 °F 3.9 °F 7.7 °F 76% 29.68 in 1.8 mi SW 6.9 mph - N/A Snow Light Snow
9:35 AM 14.9 °F 4.0 °F 7.9 °F 74% 29.69 in 1.8 mi SW 8.1 mph - N/A Snow Light Snow
9:55 AM 15.3 °F 2.8 °F 8.1 °F 73% 29.69 in 1.8 mi SW 10.4 mph 21.9 mph N/A Snow Light Snow
10:15 AM 14.9 °F 2.3 °F 7.7 °F 73% 29.71 in 1.2 mi SW 10.4 mph - N/A Snow Light Snow
10:35 AM 14.7 °F 2.9 °F 7.7 °F 74% 29.71 in 1.2 mi SW 9.2 mph - N/A Snow Light Snow
10:55 AM 14.5 °F 1.1 °F 7.2 °F 73% 29.71 in 2.0 mi SW 11.5 mph 20.7 mph N/A Snow Light Snow
11:15 AM 14.0 °F 0.5 °F 5.9 °F 70% 29.71 in 4.0 mi SW 11.5 mph 18.4 mph N/A Snow Light Snow
11:35 AM 14.2 °F 2.2 °F 5.7 °F 69% 29.71 in 3.0 mi SW 9.2 mph 19.6 mph N/A Snow Light Snow
11:55 AM 14.0 °F 1.2 °F 5.4 °F 69% 29.71 in 5.0 mi SW 10.4 mph - N/A Snow Light Snow
12:15 PM 13.5 °F -0.9 °F 5.4 °F 70% 29.71 in 4.0 mi SW 12.7 mph 17.3 mph N/A Snow Light Snow
12:35 PM 12.6 °F -3.8 °F 4.3 °F 69% 29.72 in 3.0 mi SW 16.1 mph 26.5 mph N/A Snow Light Snow
12:55 PM 11.7 °F -4.4 °F 2.3 °F 66% 29.72 in 10.0 mi SW 15.0 mph 21.9 mph N/A   Scattered Clouds
1:15 PM 11.7 °F -3.8 °F 2.5 °F 67% 29.72 in 7.0 mi SW 13.8 mph 23.0 mph N/A   Scattered Clouds
1:35 PM 11.7 °F -7.0 °F 2.1 °F 66% 29.72 in 1.2 mi SW 20.7 mph 28.8 mph N/A Snow Light Snow
1:55 PM 11.5 °F -5.8 °F 1.2 °F 63% 29.73 in 1.5 mi SW 17.3 mph 26.5 mph N/A Snow Light Snow
2:15 PM 11.5 °F -5.2 °F 1.6 °F 64% 29.74 in 7.0 mi SW 16.1 mph 24.2 mph N/A   Scattered Clouds
2:35 PM 11.3 °F -5.5 °F 1.2 °F 64% 29.75 in 7.0 mi SW 16.1 mph 24.2 mph N/A   Clear
2:55 PM 10.9 °F -5.9 °F 1.0 °F 64% 29.77 in 7.0 mi SW 16.1 mph 23.0 mph N/A   Clear
3:15 PM 10.0 °F -4.5 °F 0.3 °F 65% 29.78 in 7.0 mi SW 11.5 mph 24.2 mph N/A   Clear
3:35 PM 9.7 °F -3.3 °F 0.5 °F 66% 29.79 in 10.0 mi SW 9.2 mph 18.4 mph N/A   Clear
3:55 PM 9.3 °F -4.6 °F 0.3 °F 67% 29.80 in 10.0 mi SW 10.4 mph - N/A   Clear
4:15 PM 8.4 °F -2.8 °F -0.0 °F 68% 29.81 in 10.0 mi SW 6.9 mph 16.1 mph N/A   Clear
4:35 PM 8.1 °F -6.2 °F -0.2 °F 69% 29.83 in 10.0 mi SW 10.4 mph 17.3 mph N/A   Clear
4:55 PM 7.7 °F -7.4 °F -0.4 °F 70% 29.84 in 10.0 mi SW 11.5 mph - N/A   Clear
5:15 PM 7.7 °F -8.2 °F -0.4 °F 70% 29.85 in 10.0 mi SW 12.7 mph 18.4 mph N/A   Clear
5:35 PM 7.7 °F -6.6 °F -0.2 °F 70% 29.86 in 10.0 mi SW 10.4 mph 19.6 mph N/A   Clear
5:55 PM 7.7 °F -9.5 °F 0.1 °F 71% 29.87 in 5.0 mi SW 15.0 mph 19.6 mph N/A   Haze
6:15 PM 7.7 °F -8.2 °F 0.5 °F 72% 29.88 in 5.0 mi SW 12.7 mph 18.4 mph N/A   Haze
6:35 PM 8.4 °F -7.9 °F 0.9 °F 71% 29.90 in 3.0 mi SW 13.8 mph 19.6 mph N/A   Haze
6:55 PM 8.6 °F -8.3 °F 1.4 °F 73% 29.90 in 2.5 mi SW 15.0 mph 18.4 mph N/A Snow Light Snow
7:15 PM 8.8 °F -5.3 °F 1.8 °F 73% 29.92 in 3.0 mi SW 10.4 mph 16.1 mph N/A   Haze
7:35 PM 9.1 °F -4.9 °F 1.9 °F 73% 29.92 in 4.0 mi SW 10.4 mph - N/A   Haze
7:55 PM 9.5 °F 1.2 °F 1.9 °F 71% 29.93 in 5.0 mi SW 4.6 mph - N/A   Haze
8:15 PM 9.1 °F -3.0 °F 1.4 °F 71% 29.93 in 5.0 mi SW 8.1 mph 16.1 mph N/A   Haze
8:35 PM 9.1 °F -4.0 °F 1.4 °F 71% 29.93 in 7.0 mi SW 9.2 mph 18.4 mph N/A   Mostly Cloudy
8:55 PM 8.8 °F -5.3 °F 1.8 °F 73% 29.93 in 5.0 mi SW 10.4 mph 16.1 mph N/A   Haze
9:15 PM 8.6 °F -3.7 °F 2.3 °F 76% 29.93 in 3.0 mi SW 8.1 mph - N/A   Haze
9:35 PM 8.2 °F -1.8 °F 1.4 °F 74% 29.94 in 4.0 mi SW 5.8 mph - N/A   Haze
9:55 PM 9.0 °F -5.1 °F 1.2 °F 71% 29.94 in 10.0 mi SW 10.4 mph 17.3 mph N/A   Mostly Cloudy
10:15 PM 9.1 °F -4.0 °F 0.9 °F 69% 29.95 in 10.0 mi SW 9.2 mph 16.1 mph N/A   Clear
10:35 PM 8.4 °F -3.9 °F 0.7 °F 71% 29.96 in 10.0 mi SW 8.1 mph - N/A   Clear
10:55 PM 8.8 °F 0.4 °F 0.9 °F 70% 29.96 in 10.0 mi SW 4.6 mph - N/A   Clear
11:15 PM 8.2 °F 1.6 °F 0.9 °F 72% 29.96 in 10.0 mi SW 3.5 mph - N/A   Clear
11:35 PM 6.8 °F -0.1 °F 0.1 °F 74% 29.96 in 10.0 mi SW 3.5 mph - N/A   Clear
11:55 PM 7.5 °F 0.8 °F 0.7 °F 74% 29.96 in 10.0 mi SW 3.5 mph - N/A   Scattered Clouds